Wind_Speed
8 9 9 9 10 10 10 10 10 11 11 11 11 11 11 11 10 11 11 12 12 12 12 13 14 13 13 14 13 13 14 14 14 14 14 14 15 15 15 16 16 16 16 16
9 9 10 11 11 11 10 11 11 12 12 12 12 12 13 12 12 13 12 13 14 14 13 14 15 14 14 13 13 14 15 15 15 16 16 16 16 16 16 16 16 16 16 16
9 10 11 11 11 11 12 12 12 13 13 13 13 13 13 13 13 14 14 14 14 15 15 15 16 16 15 14 14 15 15 16 16 16 17 17 16 16 17 17 16 17 16 16
10 11 10 11 11 12 13 13 13 13 13 13 14 14 13 14 14 14 15 15 15 15 16 16 16 16 16 14 15 15 16 16 16 16 17 17 16 16 17 16 17 16 17 17
10 10 11 11 11 12 13 13 13 13 13 13 14 14 14 14 14 14 15 15 15 16 17 16 17 16 16 15 15 16 16 16 16 16 16 17 17 17 17 17 17 17 17 17
10 11 11 11 11 11 12 12 12 12 13 13 13 15 14 16 15 15 16 16 16 17 17 17 17 16 16 15 15 16 16 16 16 16 16 17 17 17 17 18 18 17 17 18
11 11 10 11 11 11 11 11 11 12 11 12 13 14 15 16 16 17 17 17 17 18 18 18 17 17 17 17 16 16 17 17 17 17 17 17 17 18 18 18 18 18 17 18
11 12 12 11 11 12 12 12 11 11 11 13 13 14 15 17 17 18 18 18 17 17 17 17 17 17 17 17 17 18 17 17 18 18 18 18 18 18 18 18 18 18 18 18
12 14 14 13 12 13 13 13 13 13 12 14 15 15 17 17 18 18 18 18 18 18 18 17 17 17 17 17 18 18 18 18 19 19 19 19 19 19 19 19 19 19 19 19
13 14 15 15 14 13 14 13 14 15 14 14 14 15 17 18 18 19 18 18 18 19 19 19 18 18 18 18 19 20 20 20 20 20 20 20 20 20 20 19 19 19 20 20
15 15 16 16 15 14 15 15 15 16 15 15 14 15 18 19 21 21 20 20 20 19 19 19 19 19 19 20 20 20 20 21 21 21 21 21 21 21 21 20 19 19 20 20
16 17 17 18 17 17 17 17 17 17 16 17 18 17 19 21 22 22 22 22 21 21 21 21 21 21 21 21 21 21 21 21 22 22 22 22 22 21 21 21 21 20 20 21
18 19 18 18 18 18 18 18 18 18 18 19 19 18 21 23 23 23 24 23 23 23 22 22 21 21 22 22 22 23 23 22 22 22 23 23 23 22 22 22 22 22 21 22
19 20 19 18 18 18 19 20 20 19 19 20 20 19 21 24 25 25 24 24 23 23 23 23 23 23 24 24 24 24 24 23 23 23 23 23 23 23 23 23 23 23 22 23
20 20 20 19 20 20 21 21 21 21 21 22 21 21 22 24 25 25 24 23 24 24 24 24 24 25 25 25 25 25 24 24 24 24 24 24 24 24 24 24 24 23 23 23
21 21 21 21 21 22 22 22 22 21 21 22 23 23 23 24 26 26 25 25 24 24 24 24 25 25 26 26 25 25 25 25 25 25 25 25 25 25 25 24 24 24 24 23
22 22 22 22 22 24 23 22 22 22 22 23 24 25 25 25 25 26 26 26 26 25 24 24 24 25 25 25 25 25 25 25 26 26 26 26 26 26 26 25 25 25 24 23
23 23 23 23 24 26 24 23 23 23 23 24 25 26 26 25 25 25 26 27 26 25 25 24 25 25 25 26 26 27 27 27 27 27 27 27 27 27 26 26 25 25 25 25
24 24 24 24 25 26 25 24 24 24 24 24 25 25 25 25 26 26 26 26 26 26 25 25 26 27 27 28 28 28 27 27 27 27 27 27 28 27 27 26 26 26 26 26
25 25 25 25 26 27 26 25 25 25 26 25 25 25 25 25 26 26 27 27 27 27 27 27 28 28 28 29 28 28 28 28 28 28 28 29 28 28 27 27 27 27 28 27
26 26 26 26 27 27 26 26 26 26 27 26 26 26 26 26 26 27 27 28 28 28 28 28 29 29 29 29 29 29 29 29 29 30 30 30 29 28 28 28 28 28 28 28
27 27 27 27 29 28 27 27 27 28 29 29 29 28 28 28 28 28 29 29 29 29 29 29 29 29 29 30 30 31 31 30 30 31 31 30 30 29 29 29 29 30 30 29
28 28 28 28 29 29 29 29 29 30 30 30 30 30 30 30 29 30 30 30 31 31 30 30 30 30 30 30 31 32 32 31 31 31 31 30 30 30 30 30 30 30 30 30
30 30 30 31 30 30 30 31 30 30 31 32 32 31 31 32 31 31 32 31 31 32 31 31 31 31 31 31 31 32 32 32 32 31 31 30 30 30 30 31 31 31 31 30
31 32 32 32 31 32 32 32 31 31 32 33 33 32 32 32 32 32 32 32 32 32 32 32 32 32 32 32 32 32 32 32 31 31 31 30 30 30 30 31 31 31 31 31
31 32 32 32 32 33 33 32 32 32 32 33 33 33 33 32 33 33 33 32 32 32 32 32 33 32 32 33 33 33 33 32 31 31 30 30 30 31 31 31 31 31 31 30
Wind_Direction
253 254 251 252 256 257 255 263 267 274 276 276 279 283 287 288 290 291 290 288 289 287 287 289 289 289 294 293 296 299 300 302 302 302 300 298 296 294 292 290 288 287 286 284
259 254 254 254 255 257 255 260 263 269 275 277 280 285 286 288 290 290 292 292 289 288 288 287 289 293 292 293 294 298 300 301 301 301 300 299 294 292 291 289 286 283 281 281
258 256 257 256 253 254 258 261 262 269 276 279 281 282 285 289 291 289 290 292 290 290 290 287 288 291 294 292 295 298 300 302 301 301 300 299 295 292 290 288 286 282 279 280
257 259 259 257 254 252 258 263 264 267 273 280 282 283 286 288 291 292 292 293 293 293 291 290 290 291 293 293 296 298 298 299 300 301 301 300 297 293 290 286 286 283 279 279
258 259 258 256 255 256 257 264 268 273 276 280 283 284 287 289 289 293 294 293 293 293 292 290 291 292 293 290 294 296 297 299 299 300 301 301 299 294 290 287 286 284 281 279
262 263 264 260 258 261 263 267 269 273 276 279 282 282 285 287 289 292 293 293 292 293 293 292 290 291 293 292 292 294 296 298 300 301 302 302 300 296 291 288 286 283 281 281
264 261 260 260 259 262 262 267 273 275 279 285 282 282 285 287 288 288 291 293 292 293 291 290 290 289 290 291 289 291 294 296 298 300 301 300 300 298 292 290 286 282 281 282
267 264 263 262 264 265 266 267 270 274 276 284 285 285 285 289 294 290 290 291 292 292 290 291 290 289 288 289 290 292 294 295 296 298 300 300 300 298 293 290 287 284 281 282
267 264 266 268 267 266 267 264 262 263 263 267 280 287 286 290 294 293 290 291 291 292 292 291 291 289 290 291 290 291 293 293 293 294 297 298 298 297 293 290 288 284 282 283
263 263 267 268 268 267 267 266 263 264 269 273 277 280 285 291 293 295 294 293 292 291 292 290 290 290 290 289 289 290 290 290 290 291 295 296 296 296 294 291 288 285 283 283
261 263 266 269 271 269 269 270 269 268 269 271 275 277 283 286 291 294 295 292 290 290 291 290 289 288 288 289 288 289 290 290 292 293 293 294 294 293 294 291 288 286 284 285
262 263 268 271 271 268 268 269 267 267 268 269 270 274 280 283 287 291 293 292 290 289 289 288 287 286 287 289 290 289 289 290 291 293 293 293 293 292 292 291 288 287 286 285
262 263 266 268 267 268 271 271 269 270 268 268 271 276 278 282 285 288 290 291 291 290 288 287 286 285 286 288 289 290 289 289 291 292 293 294 294 293 291 291 289 287 286 287
263 264 266 267 270 271 273 272 270 271 271 270 271 272 274 282 286 288 289 290 290 291 290 288 287 286 287 286 286 288 288 288 289 291 293 295 294 294 293 291 290 288 286 287
263 263 264 262 262 264 268 271 270 270 270 271 272 273 275 278 283 287 289 289 290 290 289 288 287 286 286 286 285 287 288 288 288 289 291 292 294 294 293 292 290 289 288 288
263 263 264 263 265 266 266 269 271 274 271 272 273 274 277 280 282 286 288 288 289 288 287 288 288 287 286 286 285 286 287 288 289 289 290 290 292 293 292 291 289 289 289 288
263 264 264 265 267 268 268 271 271 273 273 274 275 277 278 280 282 283 285 287 288 288 288 288 287 287 285 284 284 285 285 286 287 289 290 290 291 292 291 291 289 288 287 287
262 263 265 267 268 270 274 273 272 273 276 277 277 279 280 281 282 282 284 286 287 287 287 286 286 285 285 284 285 285 286 286 287 287 288 290 290 290 289 288 288 287 286 285
262 263 266 267 269 273 274 274 274 275 276 277 278 280 281 281 282 283 284 283 284 285 285 285 285 285 284 284 284 284 285 285 286 287 288 288 289 288 287 285 286 286 285 285
261 263 266 268 269 272 274 274 275 276 277 279 280 281 283 283 282 284 285 285 284 284 284 285 285 284 283 284 284 284 284 284 285 286 287 287 287 287 285 284 284 284 284 284
263 263 264 267 268 271 274 276 277 276 278 281 281 283 285 286 286 286 286 286 285 285 285 285 285 284 283 283 283 284 284 284 284 284 285 286 286 285 284 284 284 284 285 284
264 265 265 266 267 270 274 275 276 277 279 281 282 284 285 287 287 286 286 286 285 284 285 285 286 286 285 284 284 284 285 285 285 284 284 284 284 285 283 282 283 284 286 286
262 264 268 268 269 271 272 274 276 277 279 280 283 284 285 287 288 287 287 286 286 286 286 286 286 286 286 286 285 285 285 285 286 285 284 284 283 284 284 283 283 284 285 285
263 263 264 266 267 269 271 274 275 276 277 279 281 283 285 286 287 287 288 287 287 287 286 285 285 285 285 286 286 286 285 285 285 285 283 283 282 284 284 284 283 283 283 284
265 266 266 266 267 269 271 273 275 276 277 279 281 283 284 285 285 287 287 287 287 287 286 285 285 285 284 284 286 286 286 286 285 284 283 282 282 283 284 284 284 284 283 283
265 266 266 267 266 268 270 271 272 275 278 281 283 283 284 285 286 286 286 287 287 287 286 286 286 286 285 285 286 286 285 284 284 283 283 282 282 283 284 284 284 284 284 283
Height
5831 5832 5832 5833 5834 5835 5835 5836 5836 5836 5836 5836 5836 5836 5836 5835 5835 5835 5835 5834 5834 5833 5832 5832 5830 5830 5830 5829 5829 5828 5827 5827 5826 5825 5824 5823 5822 5822 5821 5820 5820 5820 5819 5819
5829 5830 5830 5831 5831 5832 5833 5834 5834 5834 5834 5834 5834 5834 5834 5833 5833 5833 5832 5831 5831 5830 5830 5829 5828 5827 5827 5826 5826 5825 5824 5823 5822 5821 5820 5820 5819 5818 5817 5817 5816 5815 5815 5815
5826 5828 5827 5828 5829 5830 5831 5831 5831 5832 5831 5831 5832 5832 5831 5831 5830 5830 5829 5829 5828 5827 5827 5826 5825 5824 5823 5823 5822 5821 5821 5820 5819 5818 5817 5815 5814 5814 5813 5812 5812 5811 5811 5811
5824 5824 5825 5826 5826 5827 5828 5828 5829 5829 5829 5829 5829 5829 5828 5828 5828 5827 5827 5826 5825 5824 5823 5822 5822 5821 5820 5819 5819 5818 5817 5816 5815 5814 5813 5812 5811 5810 5809 5808 5807 5807 5807 5807
5821 5822 5822 5823 5824 5824 5825 5826 5826 5826 5826 5826 5826 5826 5826 5824 5824 5824 5824 5823 5822 5821 5820 5820 5819 5818 5817 5816 5815 5815 5814 5813 5812 5811 5809 5808 5807 5806 5805 5804 5803 5803 5803 5803
5819 5819 5820 5821 5821 5822 5822 5823 5823 5823 5823 5824 5824 5823 5823 5821 5821 5821 5821 5820 5819 5818 5817 5816 5816 5815 5813 5812 5812 5811 5810 5809 5808 5807 5806 5805 5803 5802 5801 5800 5799 5799 5799 5799
5817 5817 5817 5818 5819 5820 5820 5821 5821 5820 5820 5821 5821 5820 5821 5818 5818 5818 5817 5817 5816 5815 5814 5813 5812 5811 5810 5809 5808 5807 5807 5806 5805 5804 5802 5801 5799 5798 5797 5796 5795 5795 5795 5794
5814 5815 5815 5815 5816 5817 5817 5818 5819 5819 5819 5819 5818 5817 5818 5816 5815 5814 5814 5813 5812 5811 5810 5809 5808 5807 5807 5806 5805 5804 5803 5802 5801 5800 5798 5797 5796 5794 5793 5792 5791 5791 5790 5790
5812 5812 5812 5812 5813 5814 5814 5814 5815 5815 5815 5815 5815 5815 5813 5812 5812 5811 5810 5809 5809 5807 5806 5804 5804 5804 5803 5802 5801 5800 5799 5798 5797 5796 5794 5793 5791 5790 5789 5788 5787 5786 5786 5785
5809 5809 5809 5809 5810 5811 5811 5811 5812 5812 5812 5812 5813 5812 5811 5809 5808 5807 5806 5806 5804 5803 5802 5801 5800 5799 5799 5798 5797 5796 5795 5794 5792 5791 5790 5788 5787 5786 5784 5783 5782 5782 5781 5780
5805 5806 5806 5806 5807 5807 5808 5808 5808 5808 5809 5809 5809 5810 5807 5805 5804 5803 5802 5801 5800 5799 5798 5797 5796 5795 5794 5793 5792 5791 5790 5789 5788 5786 5785 5784 5782 5781 5780 5778 5778 5777 5776 5776
5801 5802 5802 5802 5803 5803 5803 5804 5804 5805 5805 5804 5804 5807 5803 5801 5800 5799 5798 5796 5795 5794 5793 5792 5791 5790 5789 5788 5787 5786 5785 5784 5783 5782 5780 5779 5777 5776 5775 5774 5773 5772 5771 5771
5797 5798 5798 5798 5800 5799 5799 5799 5799 5800 5800 5799 5800 5802 5798 5796 5795 5794 5793 5792 5790 5789 5788 5787 5786 5785 5784 5783 5782 5781 5780 5779 5778 5776 5775 5773 5772 5771 5770 5768 5767 5766 5765 5765
5792 5793 5794 5795 5794 5794 5794 5794 5794 5794 5794 5794 5795 5795 5793 5791 5789 5789 5788 5786 5785 5784 5783 5782 5781 5780 5779 5778 5776 5775 5774 5773 5772 5771 5770 5768 5767 5765 5764 5763 5762 5761 5760 5759
5787 5788 5788 5789 5789 5789 5789 5789 5789 5789 5789 5789 5789 5788 5787 5786 5784 5783 5782 5781 5780 5779 5778 5776 5775 5774 5773 5772 5771 5770 5769 5767 5766 5765 5764 5762 5761 5759 5758 5757 5756 5754 5753 5752
5781 5782 5783 5783 5783 5783 5783 5784 5784 5783 5783 5783 5782 5782 5781 5780 5779 5777 5776 5775 5774 5773 5772 5770 5769 5768 5766 5765 5765 5763 5762 5761 5760 5759 5758 5756 5755 5753 5752 5751 5749 5748 5747 5746
5775 5776 5777 5777 5778 5777 5778 5779 5778 5778 5777 5777 5776 5777 5775 5774 5773 5772 5770 5769 5768 5767 5766 5764 5763 5761 5760 5759 5758 5757 5756 5755 5753 5752 5751 5750 5748 5747 5745 5744 5743 5741 5740 5739
5770 5770 5770 5771 5772 5770 5774 5772 5772 5772 5771 5770 5770 5769 5768 5768 5766 5765 5764 5762 5761 5760 5759 5758 5756 5755 5754 5752 5751 5750 5749 5748 5747 5745 5744 5742 5741 5740 5738 5737 5736 5735 5734 5733
5763 5764 5764 5764 5764 5764 5766 5766 5766 5765 5765 5764 5763 5762 5762 5761 5760 5758 5757 5756 5755 5754 5752 5751 5750 5748 5747 5746 5745 5743 5742 5740 5739 5738 5737 5735 5734 5732 5731 5730 5729 5727 5727 5726
5757 5757 5758 5758 5757 5757 5760 5759 5759 5759 5758 5758 5757 5756 5755 5754 5753 5752 5750 5749 5747 5746 5745 5744 5743 5741 5740 5738 5737 5736 5734 5733 5731 5730 5729 5727 5726 5725 5723 5722 5721 5720 5719 5718
5750 5750 5751 5751 5750 5750 5752 5752 5752 5753 5752 5750 5749 5749 5748 5747 5746 5745 5743 5741 5740 5739 5737 5736 5735 5734 5732 5731 5729 5728 5726 5725 5723 5722 5720 5719 5718 5717 5715 5714 5713 5712 5711 5710
5742 5743 5744 5744 5743 5746 5745 5744 5745 5744 5743 5742 5742 5741 5740 5739 5738 5737 5735 5734 5732 5731 5730 5728 5727 5726 5724 5722 5721 5719 5718 5716 5715 5713 5712 5710 5709 5708 5707 5706 5705 5704 5703 5701
5735 5737 5736 5737 5738 5737 5737 5736 5736 5735 5735 5734 5734 5733 5732 5731 5730 5728 5727 5725 5724 5723 5721 5720 5718 5717 5716 5714 5712 5711 5709 5708 5706 5704 5703 5702 5701 5700 5698 5697 5696 5695 5694 5693
5727 5728 5728 5728 5729 5728 5727 5727 5727 5727 5726 5725 5725 5725 5724 5723 5721 5720 5718 5717 5716 5714 5713 5711 5710 5708 5707 5705 5704 5702 5700 5699 5697 5696 5694 5693 5692 5691 5690 5688 5687 5686 5685 5684
5719 5719 5719 5719 5720 5719 5719 5719 5719 5719 5718 5717 5716 5716 5715 5714 5712 5711 5710 5708 5707 5705 5704 5702 5701 5700 5698 5696 5695 5693 5691 5689 5688 5687 5686 5685 5683 5682 5681 5679 5678 5677 5676 5674
5710 5710 5710 5710 5711 5710 5710 5710 5710 5710 5709 5708 5707 5706 5706 5704 5703 5702 5701 5699 5698 5696 5695 5693 5692 5690 5689 5687 5685 5683 5682 5680 5679 5678 5677 5675 5674 5673 5672 5670 5669 5667 5666 5665